| time (UTC) | temp C | wind direction | speed KPH | gust KPH | rain 1hr cm | rain 24hr cm | rain mn cm | humidity % | barometer mb |
| 20260901024025 | 19 | 320 | 8.0 | 9.7 | 0.00 | 0.00 | 0.00 | 69 | 1008.3 |
| 20260901023519 | 19 | 357 | 3.2 | 4.8 | 0.00 | 0.00 | 0.00 | 69 | 1008.0 |
| 20260901023014 | 19 | 313 | 6.4 | 9.7 | 0.00 | 0.00 | 0.00 | 68 | 1008.1 |
| 20260901022509 | 19 | 261 | 8.0 | 12.9 | 0.00 | 0.00 | 0.00 | 68 | 1008.2 |
| 20260901022004 | 20 | 289 | 4.8 | 8.0 | 0.00 | 0.00 | 0.00 | 68 | 1008.2 |
| 20260901021500 | 20 | 322 | 3.2 | 3.2 | 0.00 | 0.00 | 0.00 | 67 | 1008.3 |
| 20260901020955 | 20 | 314 | 4.8 | 8.0 | 0.00 | 0.00 | 0.00 | 67 | 1008.3 |
| 20260901020450 | 20 | 329 | 4.8 | 8.0 | 0.00 | 0.00 | 0.00 | 67 | 1008.3 |
| 20260901015949 | 20 | 347 | 6.4 | 8.0 | 0.00 | 0.00 | 0.00 | 67 | 1008.2 |
| 20260901015446 | 20 | 334 | 11.3 | 14.5 | 0.00 | 0.00 | 0.00 | 66 | 1008.4 |
| 20260901014945 | 20 | 0 | 8.0 | 11.3 | 0.00 | 0.00 | 0.00 | 66 | 1008.3 |
| 20260901014441 | 20 | 321 | 4.8 | 4.8 | 0.00 | 0.00 | 0.00 | 66 | 1008.3 |
| 20260901013936 | 20 | 324 | 6.4 | 11.3 | 0.00 | 0.00 | 0.00 | 66 | 1008.3 |
| 20260901013432 | 20 | 2 | 11.3 | 14.5 | 0.00 | 0.00 | 0.00 | 66 | 1008.3 |
| 20260901012928 | 20 | 10 | 6.4 | 9.7 | 0.00 | 0.00 | 0.00 | 66 | 1008.3 |
| 20260901012422 | 20 | 283 | 6.4 | 11.3 | 0.00 | 0.00 | 0.00 | 66 | 1008.2 |
| 20260901011918 | 20 | 335 | 6.4 | 9.7 | 0.00 | 0.00 | 0.00 | 67 | 1008.4 |
| 20260901011414 | 20 | 338 | 6.4 | 11.3 | 0.00 | 0.00 | 0.00 | 67 | 1008.5 |
| 20260901010912 | 20 | 0 | 4.8 | 8.0 | 0.00 | 0.00 | 0.00 | 66 | 1008.3 |
| 20260901010407 | 20 | 308 | 4.8 | 8.0 | 0.00 | 0.00 | 0.00 | 66 | 1008.5 |
| 20260901005906 | 20 | 319 | 6.4 | 11.3 | 0.00 | 0.00 | 0.00 | 66 | 1008.3 |
| 20260901005401 | 20 | 274 | 0.0 | 1.6 | 0.00 | 0.00 | 0.00 | 66 | 1008.4 |
| 20260901004856 | 20 | 310 | 4.8 | 9.7 | 0.00 | 0.00 | 0.00 | 66 | 1008.4 |
| 20260901004355 | 20 | 344 | 8.0 | 12.9 | 0.00 | 0.00 | 0.00 | 65 | 1008.3 |
| 20260901003850 | 21 | 336 | 9.7 | 12.9 | 0.00 | 0.00 | 0.00 | 64 | 1008.4 |
| 20260901003345 | 21 | 325 | 9.7 | 16.1 | 0.00 | 0.00 | 0.00 | 64 | 1008.3 |
| 20260901002843 | 20 | 340 | 6.4 | 8.0 | 0.00 | 0.00 | 0.00 | 64 | 1008.3 |
| 20260901002343 | 21 | 307 | 4.8 | 8.0 | 0.00 | 0.00 | 0.00 | 63 | 1008.5 |
| 20260901001838 | 21 | 331 | 8.0 | 12.9 | 0.00 | 0.00 | 0.00 | 64 | 1008.5 |
| 20260901001333 | 21 | 312 | 12.9 | 22.5 | 0.00 | 0.00 | 0.00 | 62 | 1008.6 |
| 20260901000828 | 22 | 32 | 9.7 | 14.5 | 0.00 | 0.00 | 0.00 | 59 | 1008.7 |
| 20260901000324 | 21 | 301 | 4.8 | 4.8 | 0.00 | 0.00 | 0.00 | 61 | 1008.7 |
| 20260831235822 | 21 | 341 | 6.4 | 9.7 | 0.00 | 0.00 | 0.00 | 62 | 1008.7 |
| 20260831235318 | 21 | 331 | 11.3 | 14.5 | 0.00 | 0.00 | 0.00 | 60 | 1008.8 |
| 20260831234813 | 21 | 346 | 3.2 | 8.0 | 0.00 | 0.00 | 0.00 | 60 | 1008.8 |
| 20260831234313 | 21 | 352 | 3.2 | 11.3 | 0.00 | 0.00 | 0.00 | 62 | 1008.8 |
| 20260831233808 | 21 | 301 | 3.2 | 4.8 | 0.00 | 0.00 | 0.00 | 61 | 1008.9 |
| 20260831233304 | 22 | 55 | 11.3 | 20.9 | 0.00 | 0.00 | 0.00 | 60 | 1009.2 |
| 20260831232758 | 22 | 339 | 0.0 | 4.8 | 0.00 | 0.00 | 0.00 | 58 | 1009.0 |
| 20260831232255 | 22 | 2 | 4.8 | 11.3 | 0.00 | 0.00 | 0.00 | 60 | 1009.0 |
| 20260831231750 | 22 | 279 | 12.9 | 17.7 | 0.00 | 0.00 | 0.00 | 61 | 1009.1 |
| 20260831231247 | 21 | 350 | 4.8 | 4.8 | 0.00 | 0.00 | 0.00 | 61 | 1009.2 |
| 20260831230742 | 21 | 357 | 11.3 | 14.5 | 0.00 | 0.00 | 0.00 | 63 | 1009.2 |
| 20260831230237 | 21 | 332 | 9.7 | 14.5 | 0.00 | 0.00 | 0.00 | 63 | 1009.1 |
| 20260831225736 | 21 | 355 | 1.6 | 3.2 | 0.00 | 0.00 | 0.00 | 62 | 1009.0 |
| 20260831225232 | 21 | 270 | 1.6 | 4.8 | 0.00 | 0.00 | 0.00 | 60 | 1009.2 |
| 20260831224726 | 22 | 338 | 6.4 | 11.3 | 0.00 | 0.00 | 0.00 | 60 | 1009.4 |
| 20260831224222 | 23 | 339 | 1.6 | 11.3 | 0.00 | 0.00 | 0.00 | 56 | 1009.3 |
| 20260831223717 | 23 | 5 | 0.0 | 0.0 | 0.00 | 0.00 | 0.00 | 58 | 1009.6 |
| 20260831223214 | 22 | 24 | 8.0 | 12.9 | 0.00 | 0.00 | 0.00 | 59 | 1009.6 |
| 20260831222709 | 22 | 9 | 11.3 | 14.5 | 0.00 | 0.00 | 0.00 | 60 | 1009.5 |
| 20260831222205 | 22 | 277 | 1.6 | 1.6 | 0.00 | 0.00 | 0.00 | 62 | 1009.7 |
| 20260831221700 | 22 | 14 | 14.5 | 20.9 | 0.00 | 0.00 | 0.00 | 61 | 1009.4 |
| 20260831221155 | 21 | 259 | 4.8 | 8.0 | 0.00 | 0.00 | 0.00 | 61 | 1009.7 |
| 20260831220650 | 21 | 17 | 4.8 | 8.0 | 0.00 | 0.00 | 0.00 | 63 | 1009.8 |
| 20260831220145 | 22 | 341 | 4.8 | 12.9 | 0.00 | 0.00 | 0.00 | 60 | 1009.5 |
| 20260831215640 | 23 | 312 | 0.0 | 0.0 | 0.00 | 0.00 | 0.00 | 60 | 1009.8 |
| 20260831215136 | 22 | 314 | 9.7 | 12.9 | 0.00 | 0.00 | 0.00 | 61 | 1010.0 |
| 20260831214633 | 21 | 351 | 9.7 | 17.7 | 0.00 | 0.00 | 0.00 | 61 | 1009.9 |
| 20260831214129 | 22 | 351 | 6.4 | 11.3 | 0.00 | 0.00 | 0.00 | 61 | 1010.1 |
| 20260831213626 | 22 | 292 | 4.8 | 8.0 | 0.00 | 0.00 | 0.00 | 60 | 1010.1 |
| 20260831213121 | 21 | 8 | 4.8 | 8.0 | 0.00 | 0.00 | 0.00 | 62 | 1010.3 |
| 20260831212617 | 21 | 290 | 11.3 | 14.5 | 0.00 | 0.00 | 0.00 | 64 | 1010.4 |
| 20260831212113 | 21 | 343 | 8.0 | 16.1 | 0.00 | 0.00 | 0.00 | 63 | 1010.1 |
| 20260831211612 | 21 | 332 | 11.3 | 14.5 | 0.00 | 0.00 | 0.00 | 62 | 1010.5 |
| 20260831211112 | 21 | 342 | 12.9 | 16.1 | 0.00 | 0.00 | 0.00 | 62 | 1010.5 |
| 20260831210607 | 21 | 291 | 3.2 | 8.0 | 0.00 | 0.00 | 0.00 | 62 | 1010.4 |
| 20260831210103 | 22 | 353 | 11.3 | 17.7 | 0.00 | 0.00 | 0.00 | 60 | 1010.7 |
| 20260831205602 | 22 | 331 | 8.0 | 11.3 | 0.00 | 0.00 | 0.00 | 61 | 1010.6 |
| 20260831205058 | 22 | 305 | 1.6 | 3.2 | 0.00 | 0.00 | 0.00 | 61 | 1010.6 |
| 20260831204553 | 21 | 299 | 6.4 | 9.7 | 0.00 | 0.00 | 0.00 | 62 | 1010.8 |
| 20260831204051 | 22 | 281 | 9.7 | 14.5 | 0.00 | 0.00 | 0.00 | 60 | 1010.8 |
| 20260831203546 | 21 | 307 | 1.6 | 1.6 | 0.00 | 0.00 | 0.00 | 64 | 1011.0 |
| 20260831203045 | 22 | 327 | 8.0 | 11.3 | 0.00 | 0.00 | 0.00 | 61 | 1010.8 |
| 20260831202544 | 21 | 277 | 3.2 | 9.7 | 0.00 | 0.00 | 0.00 | 61 | 1010.9 |
| 20260831202039 | 21 | 308 | 1.6 | 3.2 | 0.00 | 0.00 | 0.00 | 62 | 1011.1 |
| 20260831201538 | 21 | 334 | 6.4 | 9.7 | 0.00 | 0.00 | 0.00 | 64 | 1011.1 |
| 20260831201033 | 21 | 259 | 1.6 | 3.2 | 0.00 | 0.00 | 0.00 | 64 | 1011.3 |
| 20260831200529 | 21 | 266 | 8.0 | 11.3 | 0.00 | 0.00 | 0.00 | 63 | 1011.4 |
| 20260831200024 | 20 | 307 | 8.0 | 9.7 | 0.00 | 0.00 | 0.00 | 63 | 1011.3 |
| 20260831195519 | 21 | 333 | 8.0 | 14.5 | 0.00 | 0.00 | 0.00 | 62 | 1011.5 |
| 20260831195019 | 20 | 317 | 8.0 | 11.3 | 0.00 | 0.00 | 0.00 | 64 | 1011.5 |
| 20260831194509 | 21 | 314 | 3.2 | 3.2 | 0.00 | 0.00 | 0.00 | 63 | 1011.5 |
| 20260831194008 | 21 | 8 | 3.2 | 3.2 | 0.00 | 0.00 | 0.00 | 64 | 1011.8 |
| 20260831193504 | 20 | 317 | 3.2 | 3.2 | 0.00 | 0.00 | 0.00 | 68 | 1011.5 |
| 20260831192959 | 20 | 313 | 11.3 | 16.1 | 0.00 | 0.00 | 0.00 | 68 | 1011.6 |
| 20260831192454 | 20 | 316 | 11.3 | 14.5 | 0.00 | 0.00 | 0.00 | 66 | 1011.8 |
| 20260831191948 | 19 | 339 | 11.3 | 14.5 | 0.00 | 0.00 | 0.00 | 68 | 1012.0 |
| 20260831191445 | 18 | 340 | 8.0 | 12.9 | 0.00 | 0.00 | 0.00 | 70 | 1011.8 |
| 20260831190941 | 20 | 307 | 6.4 | 11.3 | 0.00 | 0.00 | 0.00 | 66 | 1012.0 |
| 20260831190436 | 20 | 316 | 3.2 | 11.3 | 0.00 | 0.00 | 0.00 | 69 | 1012.2 |
| 20260831185935 | 20 | 319 | 4.8 | 8.0 | 0.00 | 0.00 | 0.00 | 66 | 1012.2 |
| 20260831185431 | 20 | 314 | 8.0 | 11.3 | 0.00 | 0.00 | 0.00 | 68 | 1012.1 |
| 20260831184930 | 20 | 318 | 6.4 | 11.3 | 0.00 | 0.00 | 0.00 | 67 | 1012.4 |
| 20260831184425 | 20 | 318 | 9.7 | 16.1 | 0.00 | 0.00 | 0.00 | 65 | 1012.2 |
| 20260831183920 | 20 | 306 | 4.8 | 11.3 | 0.00 | 0.00 | 0.00 | 67 | 1012.4 |
| 20260831183420 | 20 | 297 | 11.3 | 12.9 | 0.00 | 0.00 | 0.00 | 68 | 1012.5 |
| 20260831182914 | 20 | 317 | 1.6 | 3.2 | 0.00 | 0.00 | 0.00 | 67 | 1012.6 |
| 20260831182409 | 20 | 282 | 4.8 | 8.0 | 0.00 | 0.00 | 0.00 | 69 | 1012.6 |
| 20260831181904 | 20 | 262 | 0.0 | 0.0 | 0.00 | 0.00 | 0.00 | 70 | 1012.6 |
| 20260831181359 | 19 | 335 | 8.0 | 11.3 | 0.00 | 0.00 | 0.00 | 71 | 1012.6 |
| 20260831180854 | 19 | 0 | 8.0 | 9.7 | 0.00 | 0.00 | 0.00 | 71 | 1012.7 |
| 20260831180348 | 18 | 283 | 4.8 | 8.0 | 0.00 | 0.00 | 0.00 | 74 | 1012.6 |
| 20260831175848 | 18 | 334 | 3.2 | 4.8 | 0.00 | 0.00 | 0.00 | 75 | 1012.8 |
| 20260831175344 | 18 | 325 | 6.4 | 8.0 | 0.00 | 0.00 | 0.00 | 75 | 1012.9 |
| 20260831174840 | 18 | 333 | 8.0 | 11.3 | 0.00 | 0.00 | 0.00 | 74 | 1013.0 |
| 20260831174336 | 18 | 308 | 1.6 | 1.6 | 0.00 | 0.00 | 0.00 | 77 | 1012.9 |
| 20260831173834 | 18 | 337 | 9.7 | 12.9 | 0.00 | 0.00 | 0.00 | 76 | 1012.9 |
| 20260831173328 | 17 | 314 | 3.2 | 4.8 | 0.00 | 0.00 | 0.00 | 78 | 1013.1 |
| 20260831172824 | 18 | 274 | 1.6 | 3.2 | 0.00 | 0.00 | 0.00 | 76 | 1013.1 |
| 20260831172319 | 18 | 308 | 4.8 | 4.8 | 0.00 | 0.00 | 0.00 | 75 | 1013.1 |
| 20260831171819 | 17 | 325 | 1.6 | 3.2 | 0.00 | 0.00 | 0.00 | 77 | 1013.2 |
| 20260831171315 | 17 | 300 | 0.0 | 1.6 | 0.00 | 0.00 | 0.00 | 77 | 1012.9 |
| 20260831170812 | 18 | 340 | 4.8 | 8.0 | 0.00 | 0.00 | 0.00 | 76 | 1013.2 |
| 20260831170308 | 18 | 316 | 6.4 | 9.7 | 0.00 | 0.00 | 0.00 | 76 | 1013.1 |
| 20260831165804 | 18 | 289 | 4.8 | 8.0 | 0.00 | 0.00 | 0.00 | 75 | 1013.3 |
| 20260831165300 | 18 | 70 | 1.6 | 3.2 | 0.00 | 0.00 | 0.00 | 73 | 1013.2 |
| 20260831164756 | 18 | 340 | 4.8 | 4.8 | 0.00 | 0.00 | 0.00 | 76 | 1013.2 |
| 20260831164252 | 17 | 328 | 3.2 | 8.0 | 0.00 | 0.00 | 0.00 | 78 | 1013.3 |
| 20260831163747 | 17 | 356 | 6.4 | 8.0 | 0.00 | 0.00 | 0.00 | 78 | 1013.1 |
| 20260831163243 | 18 | 290 | 4.8 | 8.0 | 0.00 | 0.00 | 0.00 | 76 | 1013.3 |
| 20260831162741 | 18 | 305 | 1.6 | 1.6 | 0.00 | 0.00 | 0.00 | 76 | 1013.5 |
| 20260831162236 | 18 | 321 | 0.0 | 0.0 | 0.00 | 0.00 | 0.00 | 75 | 1013.5 |
| 20260831161730 | 17 | 17 | 6.4 | 8.0 | 0.00 | 0.00 | 0.00 | 75 | 1013.4 |
| 20260831161227 | 17 | 353 | 8.0 | 9.7 | 0.00 | 0.00 | 0.00 | 74 | 1013.7 |
| 20260831160726 | 18 | 21 | 1.6 | 1.6 | 0.00 | 0.00 | 0.00 | 75 | 1013.7 |
| 20260831160221 | 17 | 76 | 3.2 | 4.8 | 0.00 | 0.00 | 0.00 | 76 | 1013.7 |
| 20260831155721 | 17 | 11 | 1.6 | 1.6 | 0.00 | 0.00 | 0.00 | 77 | 1013.5 |
| 20260831155217 | 17 | 318 | 1.6 | 3.2 | 0.00 | 0.00 | 0.00 | 77 | 1013.9 |
| 20260831154713 | 17 | 37 | 4.8 | 8.0 | 0.00 | 0.00 | 0.00 | 78 | 1014.0 |
| 20260831154209 | 17 | 14 | 6.4 | 8.0 | 0.00 | 0.00 | 0.00 | 77 | 1014.1 |
| 20260831153707 | 17 | 319 | 3.2 | 4.8 | 0.00 | 0.00 | 0.00 | 78 | 1014.1 |
| 20260831153203 | 16 | 7 | 6.4 | 8.0 | 0.00 | 0.00 | 0.00 | 79 | 1014.1 |
| 20260831152659 | 16 | 20 | 4.8 | 9.7 | 0.00 | 0.00 | 0.00 | 80 | 1014.0 |
| 20260831152155 | 16 | 11 | 8.0 | 11.3 | 0.00 | 0.00 | 0.00 | 80 | 1014.0 |
| 20260831151654 | 16 | 356 | 4.8 | 9.7 | 0.00 | 0.00 | 0.00 | 80 | 1014.0 |
| 20260831151149 | 16 | 5 | 6.4 | 8.0 | 0.00 | 0.00 | 0.00 | 81 | 1014.1 |
| 20260831150644 | 16 | 1 | 3.2 | 3.2 | 0.00 | 0.00 | 0.00 | 83 | 1014.0 |
| 20260831150139 | 15 | 1 | 0.0 | 0.0 | 0.00 | 0.00 | 0.00 | 84 | 1013.9 |
| 20260831145633 | 15 | 6 | 4.8 | 4.8 | 0.00 | 0.00 | 0.00 | 85 | 1014.3 |
| 20260831145129 | 15 | 338 | 1.6 | 1.6 | 0.00 | 0.00 | 0.00 | 86 | 1014.0 |
| 20260831144625 | 15 | 9 | 4.8 | 8.0 | 0.00 | 0.00 | 0.00 | 86 | 1014.1 |
| 20260831144121 | 15 | 19 | 0.0 | 1.6 | 0.00 | 0.00 | 0.00 | 87 | 1014.1 |
| 20260831143620 | 14 | 5 | 1.6 | 1.6 | 0.00 | 0.00 | 0.00 | 88 | 1014.2 |
| 20260831143115 | 14 | 9 | 4.8 | 4.8 | 0.00 | 0.00 | 0.00 | 88 | 1014.1 |
| 20260831142612 | 14 | 324 | 0.0 | 0.0 | 0.00 | 0.00 | 0.00 | 90 | 1014.2 |
| 20260831142107 | 14 | 328 | 0.0 | 0.0 | 0.00 | 0.00 | 0.00 | 90 | 1014.1 |
| 20260831141605 | 13 | 356 | 1.6 | 3.2 | 0.00 | 0.00 | 0.00 | 91 | 1014.2 |
| 20260831141101 | 13 | 330 | 0.0 | 1.6 | 0.00 | 0.00 | 0.00 | 92 | 1014.1 |
| 20260831140600 | 13 | 334 | 0.0 | 0.0 | 0.00 | 0.00 | 0.00 | 92 | 1014.1 |
| 20260831140055 | 13 | 344 | 4.8 | 4.8 | 0.00 | 0.00 | 0.00 | 92 | 1014.1 |
| 20260831135553 | 13 | 331 | 0.0 | 0.0 | 0.00 | 0.00 | 0.00 | 92 | 1014.0 |
| 20260831135049 | 13 | 328 | 0.0 | 0.0 | 0.00 | 0.00 | 0.00 | 92 | 1014.1 |
| 20260831134544 | 13 | 341 | 0.0 | 0.0 | 0.00 | 0.00 | 0.00 | 92 | 1014.1 |
| 20260831134039 | 13 | 327 | 0.0 | 1.6 | 0.00 | 0.00 | 0.00 | 92 | 1013.7 |
| 20260831133538 | 13 | 3 | 1.6 | 3.2 | 0.00 | 0.00 | 0.00 | 92 | 1014.0 |
| 20260831133033 | 13 | 322 | 0.0 | 0.0 | 0.00 | 0.00 | 0.00 | 92 | 1014.0 |
| 20260831132530 | 13 | 314 | 0.0 | 0.0 | 0.00 | 0.00 | 0.00 | 92 | 1013.9 |
| 20260831132028 | 13 | 328 | 0.0 | 0.0 | 0.00 | 0.00 | 0.00 | 92 | 1014.0 |
| 20260831131523 | 13 | 341 | 1.6 | 1.6 | 0.00 | 0.00 | 0.00 | 92 | 1014.0 |
| 20260831131019 | 13 | 5 | 1.6 | 1.6 | 0.00 | 0.00 | 0.00 | 92 | 1014.1 |
| 20260831130514 | 13 | 338 | 0.0 | 1.6 | 0.00 | 0.00 | 0.00 | 92 | 1014.0 |
| 20260831130010 | 13 | 344 | 4.8 | 8.0 | 0.00 | 0.00 | 0.00 | 92 | 1014.2 |
| 20260831125503 | 13 | 343 | 1.6 | 3.2 | 0.00 | 0.00 | 0.00 | 93 | 1014.2 |
| 20260831124959 | 13 | 344 | 3.2 | 3.2 | 0.00 | 0.00 | 0.00 | 93 | 1014.1 |
| 20260831124454 | 13 | 332 | 1.6 | 1.6 | 0.00 | 0.00 | 0.00 | 93 | 1014.0 |
| 20260831123950 | 13 | 321 | 0.0 | 0.0 | 0.00 | 0.00 | 0.00 | 93 | 1014.3 |
| 20260831123449 | 13 | 4 | 3.2 | 3.2 | 0.00 | 0.00 | 0.00 | 93 | 1014.2 |
| 20260831122943 | 13 | 323 | 0.0 | 0.0 | 0.00 | 0.00 | 0.00 | 93 | 1014.2 |
| 20260831122439 | 13 | 333 | 1.6 | 1.6 | 0.00 | 0.00 | 0.00 | 93 | 1014.3 |
| 20260831121934 | 13 | 331 | 3.2 | 3.2 | 0.00 | 0.00 | 0.00 | 93 | 1014.2 |
| 20260831121430 | 13 | 325 | 1.6 | 1.6 | 0.00 | 0.00 | 0.00 | 93 | 1014.6 |
| 20260831120925 | 13 | 355 | 1.6 | 3.2 | 0.00 | 0.00 | 0.00 | 93 | 1014.5 |
| 20260831120420 | 13 | 342 | 4.8 | 4.8 | 0.00 | 0.00 | 0.00 | 92 | 1014.4 |
| 20260831115920 | 13 | 328 | 0.0 | 0.0 | 0.00 | 0.00 | 0.00 | 92 | 1014.3 |
| 20260831115416 | 13 | 15 | 4.8 | 4.8 | 0.00 | 0.00 | 0.00 | 92 | 1014.4 |
| 20260831114915 | 13 | 4 | 4.8 | 4.8 | 0.00 | 0.00 | 0.00 | 92 | 1014.6 |
| 20260831114414 | 13 | 30 | 4.8 | 8.0 | 0.00 | 0.00 | 0.00 | 92 | 1014.5 |
| 20260831113911 | 13 | 9 | 8.0 | 11.3 | 0.00 | 0.00 | 0.00 | 92 | 1014.7 |
| 20260831113410 | 13 | 320 | 1.6 | 1.6 | 0.00 | 0.00 | 0.00 | 92 | 1014.8 |
| 20260831112905 | 13 | 348 | 3.2 | 3.2 | 0.00 | 0.00 | 0.00 | 92 | 1014.8 |
| 20260831112400 | 13 | 358 | 8.0 | 11.3 | 0.00 | 0.00 | 0.00 | 92 | 1014.7 |
| 20260831111855 | 13 | 14 | 3.2 | 4.8 | 0.00 | 0.00 | 0.00 | 91 | 1014.7 |
| 20260831111351 | 13 | 337 | 1.6 | 3.2 | 0.00 | 0.00 | 0.00 | 91 | 1014.8 |
| 20260831110847 | 13 | 3 | 1.6 | 3.2 | 0.00 | 0.00 | 0.00 | 91 | 1015.0 |
| 20260831110346 | 13 | 6 | 1.6 | 3.2 | 0.00 | 0.00 | 0.00 | 91 | 1014.9 |
| 20260831105845 | 13 | 333 | 3.2 | 3.2 | 0.00 | 0.00 | 0.00 | 91 | 1014.8 |
| 20260831105341 | 13 | 355 | 1.6 | 4.8 | 0.00 | 0.00 | 0.00 | 91 | 1015.0 |
| 20260831104837 | 13 | 326 | 0.0 | 0.0 | 0.00 | 0.00 | 0.00 | 90 | 1015.0 |
| 20260831104333 | 13 | 358 | 6.4 | 8.0 | 0.00 | 0.00 | 0.00 | 91 | 1015.0 |
| 20260831103832 | 13 | 24 | 3.2 | 3.2 | 0.00 | 0.00 | 0.00 | 90 | 1014.9 |
| 20260831103328 | 13 | 336 | 0.0 | 0.0 | 0.00 | 0.00 | 0.00 | 90 | 1015.2 |
| 20260831102823 | 13 | 340 | 0.0 | 0.0 | 0.00 | 0.00 | 0.00 | 90 | 1015.0 |
| 20260831102318 | 13 | 346 | 0.0 | 0.0 | 0.00 | 0.00 | 0.00 | 90 | 1015.1 |
| 20260831101814 | 13 | 330 | 0.0 | 0.0 | 0.00 | 0.00 | 0.00 | 90 | 1014.8 |
| 20260831101309 | 13 | 1 | 0.0 | 0.0 | 0.00 | 0.00 | 0.00 | 90 | 1015.3 |
| 20260831100805 | 13 | 336 | 0.0 | 1.6 | 0.00 | 0.00 | 0.00 | 90 | 1015.6 |
| 20260831100301 | 13 | 329 | 1.6 | 1.6 | 0.00 | 0.00 | 0.00 | 89 | 1015.5 |
| 20260831095800 | 13 | 333 | 0.0 | 0.0 | 0.00 | 0.00 | 0.00 | 89 | 1015.6 |
| 20260831095254 | 13 | 337 | 0.0 | 0.0 | 0.00 | 0.00 | 0.00 | 89 | 1015.6 |
| 20260831094749 | 13 | 337 | 0.0 | 0.0 | 0.00 | 0.00 | 0.00 | 88 | 1015.5 |
| 20260831094244 | 13 | 342 | 1.6 | 3.2 | 0.00 | 0.00 | 0.00 | 88 | 1015.6 |
| 20260831093741 | 13 | 1 | 6.4 | 8.0 | 0.00 | 0.00 | 0.00 | 88 | 1015.5 |
| 20260831093240 | 13 | 5 | 1.6 | 3.2 | 0.00 | 0.00 | 0.00 | 88 | 1015.8 |
| 20260831092737 | 13 | 328 | 0.0 | 1.6 | 0.00 | 0.00 | 0.00 | 88 | 1015.9 |
| 20260831092233 | 13 | 323 | 1.6 | 3.2 | 0.00 | 0.00 | 0.00 | 88 | 1015.9 |
| 20260831091732 | 13 | 322 | 1.6 | 3.2 | 0.00 | 0.00 | 0.00 | 87 | 1015.8 |
| 20260831091228 | 13 | 305 | 0.0 | 0.0 | 0.00 | 0.00 | 0.00 | 87 | 1016.1 |
| 20260831090723 | 13 | 304 | 0.0 | 0.0 | 0.00 | 0.00 | 0.00 | 86 | 1015.9 |
| 20260831090220 | 13 | 305 | 0.0 | 0.0 | 0.00 | 0.00 | 0.00 | 86 | 1016.0 |
| 20260831085715 | 13 | 322 | 0.0 | 0.0 | 0.00 | 0.00 | 0.00 | 86 | 1015.8 |
| 20260831085210 | 14 | 321 | 0.0 | 0.0 | 0.00 | 0.00 | 0.00 | 85 | 1016.0 |
| 20260831084705 | 14 | 320 | 0.0 | 0.0 | 0.00 | 0.00 | 0.00 | 85 | 1016.0 |
| 20260831084201 | 13 | 321 | 0.0 | 1.6 | 0.00 | 0.00 | 0.00 | 85 | 1015.9 |
| 20260831083657 | 13 | 321 | 0.0 | 0.0 | 0.00 | 0.00 | 0.00 | 84 | 1015.8 |
| 20260831083152 | 13 | 322 | 0.0 | 0.0 | 0.00 | 0.00 | 0.00 | 84 | 1015.8 |
| 20260831082650 | 14 | 322 | 0.0 | 0.0 | 0.00 | 0.00 | 0.00 | 83 | 1016.3 |
| 20260831082146 | 14 | 342 | 0.0 | 0.0 | 0.00 | 0.00 | 0.00 | 83 | 1016.3 |
| 20260831081641 | 14 | 320 | 0.0 | 0.0 | 0.00 | 0.00 | 0.00 | 83 | 1016.3 |
| 20260831081137 | 14 | 322 | 0.0 | 0.0 | 0.00 | 0.00 | 0.00 | 83 | 1016.3 |
| 20260831080633 | 14 | 320 | 0.0 | 0.0 | 0.00 | 0.00 | 0.00 | 83 | 1016.6 |
| 20260831080127 | 14 | 331 | 0.0 | 0.0 | 0.00 | 0.00 | 0.00 | 83 | 1016.4 |
| 20260831075624 | 13 | 306 | 0.0 | 0.0 | 0.00 | 0.00 | 0.00 | 83 | 1016.6 |
| 20260831075119 | 13 | 306 | 0.0 | 0.0 | 0.00 | 0.00 | 0.00 | 83 | 1016.6 |
| 20260831074618 | 14 | 306 | 0.0 | 0.0 | 0.00 | 0.00 | 0.00 | 83 | 1016.4 |
| 20260831074113 | 14 | 306 | 0.0 | 0.0 | 0.00 | 0.00 | 0.00 | 82 | 1016.4 |
| 20260831073608 | 14 | 306 | 0.0 | 0.0 | 0.00 | 0.00 | 0.00 | 82 | 1016.3 |
| 20260831073107 | 14 | 306 | 0.0 | 1.6 | 0.00 | 0.00 | 0.00 | 82 | 1016.2 |
| 20260831072602 | 14 | 306 | 0.0 | 1.6 | 0.00 | 0.00 | 0.00 | 82 | 1016.4 |
| 20260831072059 | 14 | 307 | 0.0 | 0.0 | 0.00 | 0.00 | 0.00 | 81 | 1016.5 |
| 20260831071557 | 14 | 307 | 0.0 | 0.0 | 0.00 | 0.00 | 0.00 | 82 | 1016.5 |
| 20260831071053 | 15 | 307 | 0.0 | 0.0 | 0.00 | 0.00 | 0.00 | 81 | 1016.6 |
| 20260831070552 | 15 | 307 | 0.0 | 0.0 | 0.00 | 0.00 | 0.00 | 81 | 1016.8 |
| 20260831070047 | 15 | 308 | 0.0 | 0.0 | 0.00 | 0.00 | 0.00 | 81 | 1016.8 |
| 20260831065544 | 15 | 309 | 0.0 | 0.0 | 0.00 | 0.00 | 0.00 | 81 | 1016.9 |
| 20260831065039 | 15 | 310 | 0.0 | 0.0 | 0.00 | 0.00 | 0.00 | 81 | 1016.9 |
| 20260831064534 | 15 | 301 | 0.0 | 0.0 | 0.00 | 0.00 | 0.00 | 81 | 1016.8 |
| 20260831064030 | 15 | 300 | 0.0 | 0.0 | 0.00 | 0.00 | 0.00 | 80 | 1016.7 |
| 20260831063525 | 15 | 296 | 0.0 | 0.0 | 0.00 | 0.00 | 0.00 | 80 | 1016.8 |
| 20260831063020 | 15 | 281 | 0.0 | 0.0 | 0.00 | 0.00 | 0.00 | 79 | 1017.0 |
| 20260831062515 | 15 | 299 | 0.0 | 0.0 | 0.00 | 0.00 | 0.00 | 80 | 1016.8 |
| 20260831062014 | 15 | 270 | 1.6 | 1.6 | 0.00 | 0.00 | 0.00 | 80 | 1017.1 |
| 20260831061512 | 15 | 293 | 0.0 | 0.0 | 0.00 | 0.00 | 0.00 | 79 | 1016.7 |
| 20260831061009 | 15 | 287 | 0.0 | 0.0 | 0.00 | 0.00 | 0.00 | 79 | 1017.0 |
| 20260831060508 | 15 | 312 | 0.0 | 0.0 | 0.00 | 0.00 | 0.00 | 78 | 1016.9 |
| 20260831060004 | 15 | 316 | 0.0 | 0.0 | 0.00 | 0.00 | 0.00 | 78 | 1017.1 |
| 20260831055458 | 15 | 325 | 0.0 | 0.0 | 0.00 | 0.00 | 0.00 | 78 | 1016.9 |
| 20260831054954 | 15 | 317 | 0.0 | 0.0 | 0.00 | 0.00 | 0.00 | 77 | 1017.1 |
| 20260831054453 | 15 | 314 | 1.6 | 1.6 | 0.00 | 0.00 | 0.00 | 77 | 1017.1 |
| 20260831053953 | 15 | 338 | 0.0 | 0.0 | 0.00 | 0.00 | 0.00 | 77 | 1017.1 |
| 20260831053451 | 16 | 330 | 0.0 | 0.0 | 0.00 | 0.00 | 0.00 | 77 | 1017.2 |
| 20260831052946 | 15 | 318 | 4.8 | 4.8 | 0.00 | 0.00 | 0.00 | 77 | 1017.4 |
| 20260831052445 | 15 | 322 | 0.0 | 0.0 | 0.00 | 0.00 | 0.00 | 78 | 1017.5 |
| 20260831051944 | 15 | 344 | 1.6 | 1.6 | 0.00 | 0.00 | 0.00 | 78 | 1017.5 |
| 20260831051443 | 15 | 306 | 0.0 | 0.0 | 0.00 | 0.00 | 0.00 | 78 | 1017.8 |
| 20260831050937 | 15 | 320 | 0.0 | 0.0 | 0.00 | 0.00 | 0.00 | 78 | 1017.5 |
| 20260831050437 | 15 | 302 | 0.0 | 0.0 | 0.00 | 0.00 | 0.00 | 78 | 1017.7 |
| 20260831045936 | 15 | 284 | 0.0 | 0.0 | 0.00 | 0.00 | 0.00 | 77 | 1017.7 |
| 20260831045435 | 15 | 301 | 0.0 | 0.0 | 0.00 | 0.00 | 0.00 | 76 | 1017.5 |
| 20260831044930 | 16 | 300 | 0.0 | 0.0 | 0.00 | 0.00 | 0.00 | 76 | 1017.6 |
| 20260831044425 | 16 | 307 | 0.0 | 0.0 | 0.00 | 0.00 | 0.00 | 76 | 1017.7 |
| 20260831043921 | 16 | 341 | 0.0 | 0.0 | 0.00 | 0.00 | 0.00 | 76 | 1017.9 |
| 20260831043421 | 16 | 285 | 0.0 | 0.0 | 0.00 | 0.00 | 0.00 | 75 | 1017.8 |
| 20260831042916 | 16 | 318 | 0.0 | 0.0 | 0.00 | 0.00 | 0.00 | 75 | 1017.6 |
| 20260831042416 | 16 | 344 | 0.0 | 0.0 | 0.00 | 0.00 | 0.00 | 75 | 1017.7 |
| 20260831041911 | 16 | 325 | 1.6 | 1.6 | 0.00 | 0.00 | 0.00 | 75 | 1017.6 |
| 20260831041410 | 16 | 315 | 0.0 | 0.0 | 0.00 | 0.00 | 0.00 | 74 | 1017.7 |
| 20260831040905 | 16 | 351 | 1.6 | 3.2 | 0.00 | 0.00 | 0.00 | 74 | 1017.7 |
| 20260831040400 | 16 | 357 | 9.7 | 11.3 | 0.00 | 0.00 | 0.00 | 74 | 1017.6 |
| 20260831035858 | 16 | 345 | 1.6 | 1.6 | 0.00 | 0.00 | 0.00 | 74 | 1017.4 |
| 20260831035357 | 16 | 24 | 4.8 | 4.8 | 0.00 | 0.00 | 0.00 | 74 | 1017.7 |
| 20260831034851 | 16 | 350 | 0.0 | 0.0 | 0.00 | 0.00 | 0.00 | 74 | 1017.6 |
| 20260831034347 | 16 | 359 | 6.4 | 9.7 | 0.00 | 0.00 | 0.00 | 73 | 1017.5 |
| 20260831033842 | 16 | 15 | 8.0 | 9.7 | 0.00 | 0.00 | 0.00 | 73 | 1017.5 |
| 20260831033343 | 16 | 345 | 9.7 | 12.9 | 0.00 | 0.00 | 0.00 | 73 | 1017.7 |
| 20260831032838 | 16 | 11 | 9.7 | 11.3 | 0.00 | 0.00 | 0.00 | 72 | 1017.4 |
| 20260831032332 | 16 | 328 | 11.3 | 14.5 | 0.00 | 0.00 | 0.00 | 72 | 1017.4 |
| 20260831031827 | 16 | 7 | 9.7 | 11.3 | 0.00 | 0.00 | 0.00 | 72 | 1017.7 |
| 20260831031326 | 16 | 10 | 12.9 | 14.5 | 0.00 | 0.00 | 0.00 | 72 | 1017.9 |
| 20260831030821 | 16 | 345 | 6.4 | 9.7 | 0.00 | 0.00 | 0.00 | 71 | 1017.6 |
| 20260831030319 | 16 | 20 | 14.5 | 16.1 | 0.00 | 0.00 | 0.00 | 71 | 1017.4 |
| 20260831025814 | 17 | 350 | 0.0 | 0.0 | 0.00 | 0.00 | 0.00 | 70 | 1017.4 |
| 20260831025308 | 17 | 15 | 8.0 | 12.9 | 0.00 | 0.00 | 0.00 | 70 | 1017.6 |
| 20260831024804 | 17 | 32 | 8.0 | 11.3 | 0.00 | 0.00 | 0.00 | 70 | 1017.7 |